FW6466 Weather Reports


time (UTC)temp
C
wind
direction
speed
KPH
gust
KPH
rain 1hr
cm
rain 24hr
cm
rain mn
cm
humidity
%
barometer
mb
20260506182517 16 114 1.6 4.8 0.05 0.79 0.79 80 1005.3
20260506181910 16 0 1.6 3.2 0.08 0.76 0.74 78 1005.4
20260506181035 16 70 0.0 3.2 0.08 0.76 0.79 78 1005.4
20260506180147 16 158 1.6 4.8 0.10 0.74 0.71 79 1005.4
20260506175516 16 95 1.6 6.4 0.10 0.74 0.76 79 1005.4
20260506174516 16 105 1.6 4.8 0.10 0.71 0.74 80 1005.4
20260506173900 16 180 1.6 3.2 0.15 0.71 0.71 80 1005.5
20260506173016 16 131 1.6 4.8 0.15 0.71 0.71 80 1005.5
20260506172037 16 146 1.6 4.8 0.15 0.71 0.71 80 1005.6
20260506171017 15 84 1.6 6.4 0.15 0.69 0.69 80 1005.7
20260506170109 15 90 1.6 1.6 0.13 0.64 0.61 80 1005.8
20260506165052 15 135 1.6 3.2 0.13 0.61 0.61 79 1005.9
20260506164400 15 0 1.6 3.2 0.13 0.61 0.58 79 1006.1
20260506163516 15 97 1.6 4.8 0.13 0.61 0.61 79 1006.1
20260506162947 15 90 1.6 1.6 0.13 0.56 0.53 79 1006.1
20260506161820 15 90 3.2 3.2 0.13 0.53 0.51 79 1006.2
20260506160825 15 90 1.6 4.8 0.13 0.51 0.51 78 1006.4
20260506160017 15 108 1.6 4.8 0.13 0.51 0.51 79 1006.4
20260506155319 15 90 3.2 4.8 0.13 0.51 0.48 80 1006.5
20260506154409 15 90 1.6 4.8 0.13 0.48 0.46 79 1006.7
20260506153517 15 92 3.2 6.4 0.13 0.48 0.48 78 1006.8
20260506152824 15 45 1.6 1.6 0.13 0.43 0.43 77 1006.8
20260506152017 14 87 1.6 3.2 0.13 0.43 0.43 78 1006.9
20260506151323 14 90 1.6 3.2 0.15 0.43 0.41 78 1007.0
20260506150408 14 90 1.6 1.6 0.15 0.41 0.38 76 1007.1
20260506145321 14 90 1.6 4.8 0.15 0.38 0.36 77 1007.3
20260506144326 14 0.0 0.0 0.15 0.36 0.33 77 1007.6
20260506143517 14 90 0.0 3.2 0.15 0.36 0.33 76 1007.7
20260506142536 14 90 1.6 3.2 0.15 0.33 0.33 77 1007.9
20260506141610 14 0.0 0.0 0.13 0.30 0.28 77 1007.9
20260506140908 14 0.0 0.0 0.08 0.25 0.23 76 1007.8
20260506135819 14 0.0 0.0 0.08 0.23 0.23 76 1007.8
20260506134819 14 0.0 1.6 0.10 0.23 0.23 76 1007.7
20260506133818 14 0.0 0.0 0.05 0.20 0.18 75 1007.6
20260506132826 14 45 1.6 0.0 0.10 0.20 0.18 77 1007.4
20260506131820 14 0.0 0.0 0.10 0.18 0.15 75 1007.4
20260506130827 14 0.0 0.0 0.13 0.18 0.15 76 1007.5
20260506130037 13 90 0.0 1.6 0.13 0.18 0.15 76 1007.5
20260506125320 13 0.0 1.6 0.13 0.15 0.15 77 1007.7
20260506124516 13 80 1.6 3.2 0.13 0.15 0.15 75 1007.8
20260506123820 13 0.0 0.0 0.13 0.15 0.13 76 1008.0
20260506122637 13 0.0 0.0 0.08 0.10 0.08 78 1008.1
20260506121909 13 0.0 0.0 0.05 0.08 0.05 78 1008.1
20260506120844 13 135 1.6 3.2 0.05 0.05 0.05 78 1008.1
20260506120017 13 320 1.6 3.2 0.05 0.05 0.05 78 1008.2
20260506115420 13 0.0 0.0 0.03 0.05 0.03 78 1008.0
20260506114341 13 90 1.6 0.0 0.00 0.03 0.00 78 1007.7
20260506113319 12 0 1.6 1.6 0.00 0.03 0.00 78 1007.7
20260506112516 13 264 3.2 3.2 0.00 0.03 0.00 77 1007.7
20260506111820 12 270 1.6 0.0 0.00 0.03 0.00 76 1007.6
20260506111016 12 321 1.6 4.8 0.00 0.03 0.00 76 1007.7
20260506110136 12 225 1.6 1.6 0.00 0.03 0.00 76 1007.7
20260506105517 12 225 0.0 1.6 0.00 0.03 0.00 76 1007.6
20260506104941 12 225 3.2 3.2 0.00 0.03 0.00 78 1007.6
20260506103821 12 270 3.2 4.8 0.00 0.03 0.00 78 1007.6
20260506103035 12 329 4.8 9.7 0.00 0.03 0.00 78 1007.6
20260506102016 12 329 6.4 11.3 0.00 0.03 0.00 78 1007.6
20260506101324 12 315 3.2 6.4 0.00 0.05 0.00 76 1007.5
20260506100017 13 322 4.8 8.0 0.00 0.05 0.00 75 1007.4
20260506095420 13 315 1.6 3.2 0.00 0.05 0.00 73 1007.2
20260506094015 13 323 1.6 3.2 0.00 0.05 0.00 72 1007.1
20260506093408 13 0.0 1.6 0.00 0.05 0.00 71 1007.1
20260506092517 13 352 0.0 3.2 0.00 0.05 0.00 71 1007.2
20260506091819 13 270 1.6 1.6 0.00 0.05 0.00 72 1007.3
20260506091016 13 329 1.6 4.8 0.00 0.05 0.00 71 1007.5
20260506090321 13 0.0 1.6 0.00 0.05 0.00 71 1007.6
20260506085320 13 0.0 0.0 0.00 0.05 0.00 70 1007.6
20260506084536 13 270 0.0 1.6 0.00 0.05 0.00 70 1007.8
20260506083928 13 0.0 1.6 0.00 0.05 0.00 70 1007.9
20260506082824 13 0.0 1.6 0.00 0.05 0.00 69 1008.0
20260506081822 13 0.0 0.0 0.00 0.05 0.00 70 1008.1
20260506081018 13 0.0 0.0 0.00 0.05 0.00 69 1008.1
20260506080119 13 0.0 0.0 0.00 0.05 0.00 68 1008.2
20260506073515 13 346 0.0 1.6 0.00 0.05 0.00 70 1008.7
20260506072949 13 338 1.6 3.2 0.00 0.05 0.00 70 1008.7
20260506071820 13 0.0 1.6 0.00 0.05 0.00 69 1008.6
20260506070557 13 225 1.6 1.6 0.00 0.05 0.00 69 1008.7
20260506061909 13 315 1.6 4.8 0.00 0.05 0.00 70 1009.2
20260506061017 13 202 0.0 3.2 0.00 0.05 0.00 70 1009.2
20260506060427 13 270 1.6 4.8 0.00 0.05 0.00 70 1009.2
20260506050824 13 0 6.4 6.4 0.00 0.05 0.00 72 1009.0
20260506045035 13 323 6.4 17.7 0.00 0.05 0.00 73 1008.9
20260506044319 14 315 6.4 17.7 0.00 0.05 0.00 73 1009.1
20260506043035 14 322 4.8 12.9 0.00 0.05 0.00 72 1009.2
20260506042335 15 315 6.4 19.3 0.00 0.05 0.00 72 1009.2
20260506041516 15 314 8.0 17.7 0.00 0.05 0.00 72 1009.1
20260506040908 15 270 6.4 16.1 0.00 0.05 0.00 71 1009.1
20260506035820 15 270 6.4 8.0 0.00 0.05 0.05 71 1009.2
20260506034820 15 225 4.8 6.4 0.00 0.05 0.05 70 1009.1
20260506034016 15 324 8.0 16.1 0.00 0.05 0.05 70 1009.1
20260506033320 16 0 6.4 16.1 0.00 0.05 0.05 70 1009.1
20260506032338 16 270 6.4 14.5 0.00 0.05 0.05 70 1008.9
20260506031401 16 315 6.4 12.9 0.00 0.05 0.05 70 1008.8
20260506030320 16 270 8.0 14.5 0.00 0.05 0.05 71 1008.5
20260506025229 17 338 9.7 22.5 0.00 0.05 0.05 72 1008.4
20260506024016 17 321 11.3 20.9 0.00 0.05 0.05 71 1008.4
20260506023324 18 0 8.0 24.1 0.00 0.05 0.05 71 1008.4
20260506022516 18 322 9.7 20.9 0.00 0.05 0.05 71 1008.4
20260506021941 18 315 6.4 16.1 0.00 0.05 0.05 68 1008.4
20260506020822 18 338 4.8 6.4 0.00 0.05 0.05 66 1008.3
20260506015909 18 315 3.2 8.0 0.00 0.05 0.05 66 1008.1
20260506014820 18 315 1.6 3.2 0.00 0.05 0.05 67 1007.9
20260506013929 18 225 1.6 3.2 0.00 0.05 0.05 67 1007.8
20260506012820 18 0.0 0.0 0.00 0.05 0.05 67 1007.6
20260506011619 18 315 1.6 0.0 0.00 0.05 0.05 67 1007.4
20260506010903 18 315 1.6 3.2 0.00 0.05 0.05 69 1007.3
20260506010037 18 324 1.6 8.0 0.00 0.05 0.05 68 1007.2
20260506005320 18 0 3.2 3.2 0.00 0.05 0.05 68 1007.3
20260506004057 18 315 3.2 8.0 0.00 0.05 0.05 68 1007.2
20260506003517 18 293 4.8 14.5 0.00 0.05 0.05 68 1007.1
20260506002654 18 315 3.2 1.6 0.00 0.05 0.05 69 1006.6
20260506001819 18 270 1.6 3.2 0.00 0.05 0.05 68 1006.5
20260506000819 18 338 1.6 3.2 0.00 0.05 0.05 67 1006.4
20260505235908 18 270 1.6 1.6 0.00 0.05 0.05 65 1006.4
20260505234611 18 0 3.2 1.6 0.00 0.05 0.05 65 1006.4
20260505233925 18 315 3.2 4.8 0.00 0.05 0.05 65 1006.1
20260505233015 18 328 4.8 6.4 0.00 0.05 0.05 65 1006.0
20260505232410 18 0 3.2 4.8 0.00 0.05 0.05 65 1005.8
20260505231407 18 0 4.8 9.7 0.00 0.05 0.05 68 1005.6
20260505230329 18 0 1.6 6.4 0.00 0.05 0.05 70 1005.6
20260505225324 18 0 1.6 4.8 0.00 0.05 0.05 71 1005.7
20260505224340 17 0 4.8 4.8 0.00 0.05 0.05 72 1005.9
20260505223409 17 315 6.4 8.0 0.00 0.05 0.05 73 1006.0
20260505222323 18 315 4.8 6.4 0.00 0.05 0.05 70 1006.2
20260505221356 18 315 9.7 16.1 0.00 0.05 0.05 70 1006.5
20260505220516 18 324 9.7 24.1 0.00 0.05 0.05 70 1006.5
20260505215611 18 315 11.3 20.9 0.03 0.05 0.05 68 1006.3
20260505214809 19 315 11.3 19.3 0.03 0.05 0.05 64 1006.3
20260505213517 19 329 14.5 30.6 0.03 0.05 0.05 61 1005.8
20260505212908 20 315 9.7 17.7 0.03 0.05 0.05 59 1005.3
20260505212016 20 315 12.9 27.4 0.03 0.05 0.05 58 1005.1
20260505211320 21 0 14.5 27.4 0.03 0.05 0.05 56 1005.3
20260505210411 22 315 14.5 40.2 0.03 0.05 0.05 50 1005.3
20260505205537 22 318 20.9 45.1 0.00 0.03 0.03 49 1005.0
20260505204545 24 315 8.0 35.4 0.00 0.03 0.03 47 1004.4
20260505203848 25 315 4.8 11.3 0.00 0.03 0.03 47 1004.0
20260505202517 25 332 4.8 16.1 0.00 0.03 0.03 49 1004.0
20260505201908 24 0 1.6 3.2 0.00 0.03 0.03 52 1004.0
20260505201016 23 323 3.2 9.7 0.00 0.03 0.03 52 1004.0
20260505200414 23 270 3.2 1.6 0.00 0.03 0.03 52 1004.2
20260505195516 23 321 1.6 16.1 0.00 0.03 0.03 50 1004.3
20260505194515 25 327 4.8 24.1 0.00 0.03 0.03 47 1004.4
20260505193650 26 45 9.7 17.7 0.00 0.03 0.03 38 1004.2
20260505192823 27 0 8.0 25.7 0.00 0.03 0.03 30 1003.7
20260505192016 27 314 9.7 22.5 0.00 0.03 0.03 30 1003.6
20260505191321 28 23 6.4 9.7 0.00 0.03 0.03 30 1003.6
20260505190335 28 0 8.0 20.9 0.00 0.03 0.03 29 1003.7
20260505185319 28 315 8.0 30.6 0.00 0.03 0.03 28 1003.8
20260505184330 28 180 6.4 6.4 0.00 0.03 0.03 30 1003.8